CW3508 Weather Reports


Display with metric or nautical units.
time (UTC)temp
F
wind
direction
speed
MPH
gust
MPH
rain 1hr
in
rain 24hr
in
rain mn
in
humidity
%
barometer
mb
20260901022014 82 308 0.0 0.0 0.00 0.00 0.00 80 1014.9
20260901021524 82 308 0.0 0.0 0.00 0.00 0.00 80 1014.9
20260901021042 83 308 0.0 0.0 0.00 0.00 0.00 79 1014.8
20260901020532 83 308 0.0 0.0 0.00 0.00 0.00 79 1014.8
20260901020042 83 308 0.0 0.0 0.00 0.00 0.00 79 1014.8
20260831213525 92 317 0.0 1.0 0.00 0.00 0.00 64 1014.0
20260831213028 92 317 0.0 0.0 0.00 0.00 0.00 62 1014.0
20260831212533 92 317 0.0 0.0 0.00 0.00 0.00 64 1014.2
20260831212018 92 316 0.0 1.0 0.00 0.00 0.00 64 1014.2
20260831211549 92 241 0.0 1.0 0.00 0.00 0.00 62 1014.2
20260831211035 92 241 0.0 1.0 0.00 0.00 0.00 61 1014.4
20260831210530 92 273 0.0 0.0 0.00 0.00 0.00 62 1014.4
20260831210028 92 273 0.0 0.0 0.00 0.00 0.00 62 1014.4
20260831205527 93 273 0.0 0.0 0.00 0.00 0.00 62 1014.4
20260831205043 93 275 0.0 1.0 0.00 0.00 0.00 63 1014.4
20260831204541 93 277 0.0 0.0 0.00 0.00 0.00 62 1014.4
20260831204041 93 277 0.0 0.0 0.00 0.00 0.00 62 1014.4
20260831203555 93 277 0.0 0.0 0.00 0.00 0.00 61 1014.4
20260831203020 93 272 0.0 1.0 0.00 0.00 0.00 62 1014.4
20260831202554 93 218 0.0 1.0 0.00 0.00 0.00 61 1014.5
20260831202040 94 218 0.0 0.0 0.00 0.00 0.00 61 1014.5
20260831201016 94 217 0.0 0.0 0.00 0.00 0.00 60 1014.8
20260831200526 94 218 0.0 0.0 0.00 0.00 0.00 60 1014.8
20260831200016 95 327 0.0 1.0 0.00 0.00 0.00 58 1015.4
20260831185516 95 327 0.0 1.0 0.00 0.00 0.00 59 1015.5
20260831185031 95 220 0.0 2.0 0.00 0.00 0.00 59 1015.5
20260831184548 95 257 0.0 1.0 0.00 0.00 0.00 60 1015.5
20260831184032 95 281 0.0 0.0 0.00 0.00 0.00 60 1015.8
20260831183534 95 191 0.0 1.0 0.00 0.00 0.00 59 1015.8
20260831183021 95 284 0.0 1.0 0.00 0.00 0.00 61 1015.8
20260831182532 95 284 0.0 1.0 0.00 0.00 0.00 62 1016.1
20260831182024 95 284 0.0 1.0 0.00 0.00 0.00 61 1016.1
20260831181519 95 281 0.0 0.0 0.00 0.00 0.00 60 1016.1
20260831181020 95 260 0.0 0.0 0.00 0.00 0.00 61 1016.1
20260831180527 95 175 0.0 0.0 0.00 0.00 0.00 61 1016.1
20260831180033 95 175 0.0 1.0 0.00 0.00 0.00 60 1016.1
20260831175529 95 216 0.0 1.0 0.00 0.00 0.00 60 1016.4
20260831175029 95 232 0.0 0.0 0.00 0.00 0.00 61 1016.4
20260831174529 95 226 0.0 0.0 0.00 0.00 0.00 63 1016.4
20260831174026 95 177 0.0 0.0 0.00 0.00 0.00 61 1016.6
20260831173523 95 315 0.0 0.0 0.00 0.00 0.00 62 1016.6
20260831173030 95 315 0.0 1.0 0.00 0.00 0.00 62 1016.6
20260831172530 95 315 0.0 1.0 0.00 0.00 0.00 63 1016.6
20260831172023 94 167 0.0 1.0 0.00 0.00 0.00 63 1016.6
20260831171528 94 140 0.0 1.0 0.00 0.00 0.00 61 1016.6
20260831171033 94 165 0.0 1.0 0.00 0.00 0.00 62 1016.6
20260831170518 94 315 0.0 1.0 0.00 0.00 0.00 62 1016.6
20260831170051 94 229 0.0 1.0 0.00 0.00 0.00 66 1016.6
20260831165531 93 267 0.0 1.0 0.00 0.00 0.00 65 1017.0
20260831165044 93 189 0.0 0.0 0.00 0.00 0.00 65 1017.0
20260831164529 92 296 0.0 1.0 0.00 0.00 0.00 70 1017.0
20260831164031 91 302 0.0 1.0 0.00 0.00 0.00 69 1017.1
20260831163546 90 302 0.0 1.0 0.00 0.00 0.00 72 1017.1
20260831163028 89 302 0.0 1.0 0.00 0.00 0.00 75 1017.1
20260831162525 89 178 0.0 0.0 0.00 0.00 0.00 72 1017.1
20260831162033 88 178 0.0 0.0 0.00 0.00 0.00 73 1017.1
20260831161529 88 178 0.0 0.0 0.00 0.00 0.00 72 1017.1
20260831161033 88 178 0.0 1.0 0.00 0.00 0.00 76 1017.4
20260831160535 88 178 0.0 1.0 0.00 0.00 0.00 76 1017.4
20260831160018 87 178 0.0 0.0 0.00 0.00 0.00 76 1017.4
20260831155534 87 178 0.0 0.0 0.00 0.00 0.00 77 1017.5
20260831155034 86 178 0.0 0.0 0.00 0.00 0.00 77 1017.5
20260831154548 86 178 0.0 0.0 0.00 0.00 0.00 76 1017.5
20260831154033 86 178 0.0 0.0 0.00 0.00 0.00 76 1017.3
20260831153537 86 154 0.0 0.0 0.00 0.00 0.00 77 1017.3
20260831153016 86 193 0.0 0.0 0.00 0.00 0.00 78 1017.3
20260831152025 84 167 0.0 0.0 0.00 0.00 0.00 80 1017.3
20260831151542 84 171 0.0 0.0 0.00 0.00 0.00 80 1017.3
20260831150548 83 188 0.0 0.0 0.00 0.00 0.00 82 1017.4
20260831150034 83 188 0.0 0.0 0.00 0.00 0.00 82 1017.4
20260831145534 83 188 0.0 1.0 0.00 0.00 0.00 82 1017.3
20260831145021 83 187 0.0 1.0 0.00 0.00 0.00 82 1017.3
20260831144534 82 176 0.0 0.0 0.00 0.00 0.00 83 1017.3
20260831144033 82 178 0.0 0.0 0.00 0.00 0.00 84 1017.4
20260831143029 80 157 0.0 0.0 0.00 0.00 0.00 86 1017.4
20260831142529 80 157 0.0 0.0 0.00 0.00 0.00 87 1017.3
20260831142043 80 158 0.0 0.0 0.00 0.00 0.00 89 1017.3
20260831141530 79 232 0.0 0.0 0.00 0.00 0.00 90 1017.3
20260831141039 79 232 0.0 0.0 0.00 0.00 0.00 91 1017.4
20260831140540 78 232 0.0 0.0 0.00 0.00 0.00 91 1017.4
20260831140053 78 232 0.0 0.0 0.00 0.00 0.00 92 1017.4
20260831135548 78 232 0.0 0.0 0.00 0.00 0.00 93 1017.5
20260831134950 77 232 0.0 0.0 0.00 0.00 0.00 94 1015.5
20260831101519 74 232 0.0 0.0 0.00 0.00 0.00 93 1015.5
20260831101024 74 232 0.0 0.0 0.00 0.00 0.00 93 1015.5
20260831100529 74 232 0.0 0.0 0.00 0.00 0.00 93 1015.5
20260831100026 74 232 0.0 0.0 0.00 0.00 0.00 93 1015.5
20260831095529 75 232 0.0 0.0 0.00 0.00 0.00 92 1015.5
20260831095033 75 232 0.0 0.0 0.00 0.00 0.00 92 1015.5
20260831094520 75 232 0.0 0.0 0.00 0.00 0.00 92 1015.5
20260831094054 75 232 0.0 0.0 0.00 0.00 0.00 92 1015.5
20260831093534 75 232 0.0 0.0 0.00 0.00 0.00 92 1015.5
20260831093019 75 232 0.0 0.0 0.00 0.00 0.00 92 1015.5
20260831092535 75 232 0.0 0.0 0.00 0.00 0.00 92 1015.5
20260831092032 75 232 0.0 0.0 0.00 0.00 0.00 92 1015.5
20260831091532 75 232 0.0 0.0 0.00 0.00 0.00 92 1015.5
20260831091022 75 232 0.0 0.0 0.00 0.00 0.00 92 1015.4
20260831090602 75 232 0.0 0.0 0.00 0.00 0.00 92 1015.4
20260831090041 75 232 0.0 0.0 0.00 0.00 0.00 92 1015.4
20260831085558 75 232 0.0 0.0 0.00 0.00 0.00 92 1015.1
20260831085041 75 232 0.0 0.0 0.00 0.00 0.00 91 1015.1
20260831084547 75 232 0.0 0.0 0.00 0.00 0.00 91 1015.1
20260831084024 75 232 0.0 0.0 0.00 0.00 0.00 91 1015.0
20260831083536 75 232 0.0 0.0 0.00 0.00 0.00 91 1015.0
20260831083043 75 232 0.0 0.0 0.00 0.00 0.00 91 1015.0
20260831082554 76 232 0.0 0.0 0.00 0.00 0.00 91 1015.0
20260831082020 76 232 0.0 0.0 0.00 0.00 0.00 91 1015.0
20260831081530 76 232 0.0 0.0 0.00 0.00 0.00 91 1015.0
20260831081057 76 232 0.0 0.0 0.00 0.00 0.00 91 1015.0
20260831080534 76 232 0.0 0.0 0.00 0.00 0.00 90 1015.0
20260831080021 76 232 0.0 0.0 0.00 0.00 0.00 90 1015.0
20260831075526 76 232 0.0 0.0 0.00 0.00 0.00 90 1014.9
20260831075027 76 232 0.0 0.0 0.00 0.00 0.00 90 1014.9
20260831074541 76 232 0.0 0.0 0.00 0.00 0.00 90 1014.9
20260831074016 76 232 0.0 0.0 0.00 0.00 0.00 90 1014.9
20260831073547 76 232 0.0 0.0 0.00 0.00 0.00 90 1014.9
20260831073036 77 232 0.0 0.0 0.00 0.00 0.00 90 1014.9
20260831072548 77 232 0.0 0.0 0.00 0.00 0.00 89 1014.9
20260831072029 77 232 0.0 0.0 0.00 0.00 0.00 89 1014.9
20260831071530 77 232 0.0 0.0 0.00 0.00 0.00 89 1014.9
20260831071041 77 232 0.0 0.0 0.00 0.00 0.00 89 1014.8
20260831070551 77 232 0.0 0.0 0.00 0.00 0.00 89 1014.8
20260831070038 77 232 0.0 0.0 0.00 0.00 0.00 89 1014.8
20260831065521 77 232 0.0 0.0 0.00 0.00 0.00 89 1014.9
20260831065026 77 232 0.0 0.0 0.00 0.00 0.00 89 1014.9
20260831064536 77 232 0.0 0.0 0.00 0.00 0.00 89 1014.9
20260831064017 77 232 0.0 0.0 0.00 0.00 0.00 89 1015.0
20260831063541 77 232 0.0 0.0 0.00 0.00 0.00 89 1015.0
20260831063015 77 232 0.0 0.0 0.00 0.00 0.00 89 1015.0
20260831062532 77 232 0.0 0.0 0.00 0.00 0.00 89 1015.0
20260831062024 77 232 0.0 0.0 0.00 0.00 0.00 89 1015.0
20260831061534 77 232 0.0 0.0 0.00 0.00 0.00 89 1015.0
20260831061032 77 232 0.0 0.0 0.00 0.00 0.00 89 1015.0
20260831060521 77 232 0.0 0.0 0.00 0.00 0.00 89 1015.0
20260831060044 77 232 0.0 0.0 0.00 0.00 0.00 88 1015.0
20260831055518 77 232 0.0 0.0 0.00 0.00 0.00 88 1015.0
20260831055036 78 232 0.0 0.0 0.00 0.00 0.00 88 1015.0
20260831054530 78 232 0.0 0.0 0.00 0.00 0.00 88 1015.0
20260831054032 78 232 0.0 0.0 0.00 0.00 0.00 88 1015.0
20260831053532 78 232 0.0 0.0 0.00 0.00 0.00 88 1015.0
20260831053045 78 232 0.0 0.0 0.00 0.00 0.00 88 1015.0
20260831052603 78 232 0.0 0.0 0.00 0.00 0.00 88 1015.0
20260831052042 78 232 0.0 0.0 0.00 0.00 0.00 88 1015.0
20260831051539 78 232 0.0 0.0 0.00 0.00 0.00 88 1015.0
20260831051025 78 232 0.0 0.0 0.00 0.00 0.00 88 1015.2
20260831050537 78 232 0.0 0.0 0.00 0.00 0.00 88 1015.2
20260831050033 78 232 0.0 0.0 0.00 0.00 0.00 88 1015.2
20260831045535 78 232 0.0 0.0 0.00 0.00 0.00 87 1015.3
20260831045037 78 232 0.0 0.0 0.00 0.00 0.00 87 1015.3
20260831044519 78 232 0.0 0.0 0.00 0.00 0.00 87 1015.3
20260831044020 78 232 0.0 0.0 0.00 0.00 0.00 87 1015.1
20260831043523 78 232 0.0 0.0 0.00 0.00 0.00 87 1015.1
20260831043049 78 232 0.0 0.0 0.00 0.00 0.00 87 1015.1
20260831042530 78 232 0.0 0.0 0.00 0.00 0.00 87 1015.1
20260831042018 79 232 0.0 0.0 0.00 0.00 0.00 86 1015.1
20260831041518 79 232 0.0 0.0 0.00 0.00 0.00 86 1015.1
20260831041027 79 232 0.0 0.0 0.00 0.00 0.00 86 1015.0
20260831040543 79 232 0.0 0.0 0.00 0.00 0.00 85 1015.0
20260831040036 79 232 0.0 0.0 0.00 0.00 0.00 85 1015.0
20260831035542 79 232 0.0 0.0 0.00 0.00 0.00 85 1015.0
20260831035030 79 232 0.0 0.0 0.00 0.00 0.00 85 1015.0
20260831034520 79 232 0.0 0.0 0.00 0.00 0.00 85 1015.0
20260831034028 80 232 0.0 0.0 0.00 0.00 0.00 85 1015.0
20260831033536 80 232 0.0 0.0 0.00 0.00 0.00 84 1015.0
20260831033021 80 232 0.0 0.0 0.00 0.00 0.00 84 1015.0
20260831032526 80 232 0.0 0.0 0.00 0.00 0.00 84 1015.0
20260831032033 80 232 0.0 0.0 0.00 0.00 0.00 84 1015.0
20260831031055 80 232 0.0 0.0 0.00 0.00 0.00 84 1015.0
20260831030536 80 232 0.0 0.0 0.00 0.00 0.00 83 1015.0
20260831030046 80 232 0.0 0.0 0.00 0.00 0.00 84 1015.0
20260831025534 80 232 0.0 0.0 0.00 0.00 0.00 83 1014.9
20260831025039 80 232 0.0 0.0 0.00 0.00 0.00 83 1014.9
20260831024538 81 232 0.0 0.0 0.00 0.00 0.00 83 1014.9
20260831024021 81 232 0.0 0.0 0.00 0.00 0.00 83 1015.0
20260831023557 81 232 0.0 0.0 0.00 0.00 0.00 83 1015.0
20260831023050 81 232 0.0 0.0 0.00 0.00 0.00 82 1015.0
20260831022529 81 232 0.0 0.0 0.00 0.00 0.00 82 1015.0